Weather History for North Bend, OR

Change the Weather History Date:

Thursday, February 27, 2014

  Actual Average Record
Temperature  
Mean Temperature 53 °F 47 °F  
Max Temperature 59 °F 53 °F 71 °F (1926)
Min Temperature 46 °F 41 °F 23 °F (1962)
Degree Days  
Heating Degree Days 12 18  
Month to date heating degree days 431 503  
Since 1 July heating degree days 2784 3158  
Cooling Degree Days 0 0  
Month to date cooling degree days 0 0  
Year to date cooling degree days 0 0  
Growing Degree Days 2 (Base 50)    
Moisture  
Dew Point 50 °F    
Average Humidity 96    
Maximum Humidity 100    
Minimum Humidity 72    
Precipitation  
Precipitation 0.05 in 0.27 in 2.14 in (2006)
Month to date precipitation 8.03 7.32  
Year to date precipitation 10.72 17.51  
Sea Level Pressure  
Sea Level Pressure 29.68 in    
Wind  
Wind Speed 4 mph (SE)    
Max Wind Speed 13 mph    
Max Gust Speed -    
Visibility 10 miles    
Events      
T = Trace of Precipitation, MM = Missing Value Source: NWS Daily Summary

Daily Weather History Graph

Daily Weather History Graph

Search for Another Location

Airport:

Trip Planner

Search our weather history database for the weather conditions in past years. The results will help you decide how hot, cold, wet, or windy it might be!

Date:

Astronomy

Feb. 27, 2014 Rise Set
Actual Time 6:56 AM PST 6:03 PM PST
Civil Twilight 6:27 AM PST 6:32 PM PST
Nautical Twilight 5:54 AM PST 7:05 PM PST
Astronomical Twilight 5:21 AM PST 7:38 PM PST
Moon 5:35 AM PST (2/27) 4:34 PM PST (2/27)
Length of Visible Light 12h 04m
Length of Day
11h 07m
Waning Crescent, 3% of the Moon is Illuminated
Feb 27
Waning Crescent
Mar 1
New
Mar 8
First Quarter
Mar 16
Full
Mar 23
Last Quarter

Hourly Weather History & Observations

Time (PST) Temp. Windchill Dew Point Humidity Pressure Visibility Wind Dir Wind Speed Gust Speed Precip Events Conditions
12:15 AM 48.2 °F - 48.2 °F 100% 29.61 in 10.0 mi Calm Calm - N/A   Overcast
12:35 AM 48.2 °F - 48.2 °F 100% 29.61 in 10.0 mi SSE 6.9 mph - N/A   Overcast
12:55 AM 48.2 °F - 48.2 °F 100% 29.61 in 10.0 mi SSE 9.2 mph - N/A   Mostly Cloudy
1:15 AM 48.2 °F - 48.2 °F 100% 29.61 in 10.0 mi SSE 11.5 mph - N/A   Overcast
1:35 AM 48.2 °F - 48.2 °F 100% 29.62 in 8.0 mi SSE 6.9 mph - 0.03 in   Overcast
1:55 AM 48.2 °F - 48.2 °F 100% 29.62 in 8.0 mi SE 6.9 mph - 0.05 in   Mostly Cloudy
2:15 AM 48.2 °F - 48.2 °F 100% 29.62 in 10.0 mi SSE 4.6 mph - 0.01 in   Overcast
2:35 AM 48.2 °F - 48.2 °F 100% 29.62 in 10.0 mi SE 3.5 mph - 0.02 in   Overcast
2:55 AM 48.2 °F - 48.2 °F 100% 29.62 in 10.0 mi SE 4.6 mph - 0.02 in   Overcast
3:15 AM 48.2 °F - 48.2 °F 100% 29.62 in 10.0 mi Calm Calm - N/A   Overcast
3:35 AM 48.2 °F - 48.2 °F 100% 29.62 in 10.0 mi Calm Calm - 0.03 in   Overcast
3:55 AM 48.2 °F - 48.2 °F 100% 29.62 in 10.0 mi Calm Calm - 0.03 in   Overcast
4:15 AM 48.2 °F - 48.2 °F 100% 29.63 in 10.0 mi SSE 5.8 mph - 0.01 in   Overcast
4:35 AM 48.2 °F - 48.2 °F 100% 29.63 in 10.0 mi SSE 5.8 mph - 0.01 in   Overcast
4:55 AM 48.2 °F - 48.2 °F 100% 29.64 in 10.0 mi SSE 5.8 mph - 0.01 in   Overcast
5:15 AM 48.2 °F - 48.2 °F 100% 29.64 in 10.0 mi SE 5.8 mph - N/A   Overcast
5:35 AM 48.2 °F - 48.2 °F 100% 29.64 in 10.0 mi SE 3.5 mph - N/A   Overcast
5:55 AM 48.2 °F - 48.2 °F 100% 29.64 in 10.0 mi SE 3.5 mph - 0.01 in   Overcast
6:15 AM 48.2 °F - 46.4 °F 93% 29.65 in 10.0 mi SSE 4.6 mph - N/A   Overcast
6:35 AM 46.4 °F 43.5 °F 46.4 °F 100% 29.65 in 10.0 mi SSE 5.8 mph - N/A   Mostly Cloudy
6:55 AM 46.4 °F 44.3 °F 46.4 °F 100% 29.65 in 10.0 mi SSE 4.6 mph - N/A   Partly Cloudy
7:15 AM 46.4 °F 43.5 °F 46.4 °F 100% 29.66 in 10.0 mi SSE 5.8 mph - N/A   Clear
7:35 AM 46.4 °F 43.5 °F 46.4 °F 100% 29.66 in 10.0 mi SSE 5.8 mph - N/A   Clear
7:55 AM 48.2 °F - 46.4 °F 93% 29.67 in 10.0 mi SE 4.6 mph - N/A   Mostly Cloudy
8:15 AM 48.2 °F - 48.2 °F 100% 29.68 in 10.0 mi SSE 6.9 mph - N/A   Overcast
8:35 AM 48.2 °F - 48.2 °F 100% 29.68 in 10.0 mi SSE 6.9 mph - N/A   Overcast
8:55 AM 48.2 °F - 48.2 °F 100% 29.69 in 10.0 mi Calm Calm - N/A   Overcast
9:35 AM 51.8 °F - 50.0 °F 94% 29.70 in 10.0 mi Calm Calm - N/A   Overcast
9:55 AM 51.8 °F - 51.8 °F 100% 29.71 in 10.0 mi SSE 3.5 mph - N/A   Overcast
10:15 AM 53.6 °F - 51.8 °F 94% 29.71 in 10.0 mi Calm Calm - N/A   Overcast
10:35 AM 53.6 °F - 51.8 °F 94% 29.72 in 10.0 mi Calm Calm - N/A   Overcast
10:55 AM 53.6 °F - 51.8 °F 94% 29.72 in 10.0 mi Calm Calm - N/A   Overcast
11:15 AM 55.4 °F - 51.8 °F 88% 29.72 in 10.0 mi Calm Calm - N/A   Overcast
11:35 AM 55.4 °F - 51.8 °F 88% 29.72 in 10.0 mi Calm Calm - N/A   Overcast
11:55 AM 55.4 °F - 51.8 °F 88% 29.70 in 10.0 mi NNE 3.5 mph - N/A   Overcast
12:15 PM 57.2 °F - 51.8 °F 82% 29.70 in 10.0 mi NE 4.6 mph - N/A   Scattered Clouds
12:35 PM 57.2 °F - 50.0 °F 77% 29.69 in 10.0 mi Calm Calm - N/A   Partly Cloudy
12:55 PM 59.0 °F - 50.0 °F 72% 29.69 in 10.0 mi Calm Calm - N/A   Partly Cloudy
1:15 PM 57.2 °F - 53.6 °F 88% 29.69 in 10.0 mi NNW 6.9 mph - N/A   Clear
1:35 PM 59.0 °F - 53.6 °F 82% 29.68 in 10.0 mi North 6.9 mph - N/A   Clear
1:55 PM 59.0 °F - 53.6 °F 82% 29.68 in 10.0 mi NNW 5.8 mph - N/A   Clear
2:15 PM 57.2 °F - 51.8 °F 82% 29.69 in 10.0 mi NW 8.1 mph - N/A   Partly Cloudy
2:33 PM 53.6 °F - 51.8 °F 94% 29.70 in 10.0 mi WSW 15.0 mph - N/A   Mostly Cloudy
2:35 PM 53.6 °F - 51.8 °F 94% 29.70 in 10.0 mi West 13.8 mph - N/A   Mostly Cloudy
2:55 PM 55.4 °F - 53.6 °F 94% 29.71 in 10.0 mi West 9.2 mph - N/A   Mostly Cloudy
3:15 PM 55.4 °F - 51.8 °F 88% 29.71 in 10.0 mi West 6.9 mph - N/A   Overcast
3:35 PM 53.6 °F - 53.6 °F 100% 29.71 in 9.0 mi WNW 4.6 mph - N/A   Mostly Cloudy
3:55 PM 53.6 °F - 53.6 °F 100% 29.71 in 9.0 mi Calm Calm - N/A   Mostly Cloudy
4:15 PM 53.6 °F - 51.8 °F 94% 29.71 in 9.0 mi Calm Calm - N/A   Overcast
4:35 PM 53.6 °F - 53.6 °F 100% 29.71 in 9.0 mi NNE 4.6 mph - 0.02 in   Overcast
4:55 PM 53.6 °F - 53.6 °F 100% 29.71 in 10.0 mi NE 6.9 mph - 0.02 in   Overcast
5:15 PM 53.6 °F - 53.6 °F 100% 29.71 in 9.0 mi NE 5.8 mph - N/A   Overcast
5:35 PM 53.6 °F - 53.6 °F 100% 29.71 in 10.0 mi North 4.6 mph - 0.01 in   Overcast
5:55 PM 53.6 °F - 51.8 °F 94% 29.71 in 10.0 mi SSW 12.7 mph - 0.01 in   Overcast
6:15 PM 53.6 °F - 51.8 °F 94% 29.72 in 10.0 mi South 8.1 mph - N/A   Mostly Cloudy
6:35 PM 53.6 °F - 51.8 °F 94% 29.72 in 10.0 mi SSW 4.6 mph - N/A   Mostly Cloudy
6:55 PM 53.6 °F - 51.8 °F 94% 29.72 in 10.0 mi South 3.5 mph - N/A   Mostly Cloudy
7:15 PM 51.8 °F - 51.8 °F 100% 29.72 in 10.0 mi SSE 3.5 mph - N/A   Overcast
7:35 PM 51.8 °F - 51.8 °F 100% 29.72 in 10.0 mi Calm Calm - N/A   Overcast
7:55 PM 51.8 °F - 51.8 °F 100% 29.72 in 10.0 mi South 3.5 mph - N/A   Overcast
8:15 PM 51.8 °F - 51.8 °F 100% 29.72 in 10.0 mi SSE 3.5 mph - N/A   Overcast
8:35 PM 51.8 °F - 50.0 °F 94% 29.72 in 10.0 mi ESE 3.5 mph - N/A   Overcast
8:55 PM 51.8 °F - 50.0 °F 94% 29.72 in 10.0 mi SSE 4.6 mph - N/A   Overcast
9:15 PM 51.8 °F - 51.8 °F 100% 29.72 in 10.0 mi Calm Calm - N/A   Overcast
9:35 PM 50.0 °F - 50.0 °F 100% 29.71 in 8.0 mi ENE 3.5 mph - N/A   Mostly Cloudy
9:55 PM 50.0 °F - 50.0 °F 100% 29.71 in 8.0 mi Calm Calm - N/A   Mostly Cloudy
10:15 PM 50.0 °F - 50.0 °F 100% 29.69 in 10.0 mi Calm Calm - N/A   Overcast
10:35 PM 48.2 °F - 48.2 °F 100% 29.69 in 5.0 mi NE 4.6 mph - N/A   Scattered Clouds
10:55 PM 50.0 °F - 50.0 °F 100% 29.67 in 5.0 mi Calm Calm - N/A   Scattered Clouds
11:15 PM 48.2 °F - 48.2 °F 100% 29.66 in 1.0 mi Calm Calm - N/A   Overcast
11:35 PM 48.2 °F - 48.2 °F 100% 29.65 in 7.0 mi ESE 4.6 mph - N/A   Mostly Cloudy
11:55 PM 48.2 °F - 48.2 °F 100% 29.65 in 10.0 mi SE 4.6 mph - N/A   Clear